TimeEDT,TemperatureF,Dew PointF,Humidity,Sea Level PressureIn,VisibilityMPH,Wind Direction,Wind SpeedMPH,Gust SpeedMPH,PrecipitationIn,Events,Conditions,WindDirDegrees,DateUTC
12:14 AM,42.8,32.0,66,30.60,10.0,ESE,5.8,-,N/A,,Clear,110,2013-04-22 04:14:00
12:34 AM,42.8,32.0,66,30.60,10.0,ESE,3.5,-,N/A,,Clear,110,2013-04-22 04:34:00
12:54 AM,41.0,32.0,70,30.59,10.0,East,5.8,-,N/A,,Clear,100,2013-04-22 04:54:00
1:14 AM,41.0,32.0,70,30.58,10.0,East,5.8,-,N/A,,Clear,90,2013-04-22 05:14:00
1:35 AM,41.0,32.0,70,30.58,10.0,East,3.5,-,N/A,,Clear,90,2013-04-22 05:35:00
1:55 AM,41.0,32.0,70,30.57,10.0,Calm,Calm,-,N/A,,Clear,0,2013-04-22 05:55:00
2:15 AM,41.0,32.0,70,30.56,10.0,Calm,Calm,-,N/A,,Clear,0,2013-04-22 06:15:00
2:35 AM,41.0,32.0,70,30.57,10.0,Calm,Calm,-,N/A,,Clear,0,2013-04-22 06:35:00
2:55 AM,41.0,32.0,70,30.57,10.0,Calm,Calm,-,N/A,,Clear,0,2013-04-22 06:55:00
3:15 AM,37.4,32.0,81,30.57,10.0,Calm,Calm,-,N/A,,Clear,0,2013-04-22 07:15:00
3:35 AM,39.2,32.0,75,30.57,10.0,Calm,Calm,-,N/A,,Clear,0,2013-04-22 07:35:00
3:55 AM,41.0,32.0,70,30.56,10.0,NE,3.5,-,N/A,,Clear,50,2013-04-22 07:55:00
4:15 AM,41.0,32.0,70,30.56,10.0,NE,3.5,-,N/A,,Clear,50,2013-04-22 08:15:00
4:35 AM,41.0,33.8,76,30.55,10.0,NE,3.5,-,N/A,,Clear,50,2013-04-22 08:35:00
4:55 AM,41.0,32.0,70,30.55,10.0,ENE,5.8,-,N/A,,Clear,60,2013-04-22 08:55:00
5:15 AM,41.0,32.0,70,30.55,10.0,ENE,5.8,-,N/A,,Clear,60,2013-04-22 09:15:00
5:35 AM,41.0,33.8,76,30.55,10.0,ENE,5.8,-,N/A,,Clear,70,2013-04-22 09:35:00
5:55 AM,41.0,33.8,76,30.55,10.0,ENE,6.9,-,N/A,,Clear,60,2013-04-22 09:55:00
6:15 AM,41.0,33.8,76,30.55,10.0,ENE,4.6,-,N/A,,Clear,60,2013-04-22 10:15:00
6:35 AM,41.0,35.6,81,30.56,10.0,ENE,8.1,-,N/A,,Clear,60,2013-04-22 10:35:00
6:55 AM,42.8,35.6,76,30.56,10.0,NE,6.9,-,N/A,,Scattered Clouds,50,2013-04-22 10:55:00
7:15 AM,42.8,35.6,76,30.56,10.0,ENE,8.1,-,N/A,,Scattered Clouds,70,2013-04-22 11:15:00
7:35 AM,42.8,35.6,76,30.57,10.0,ENE,10.4,-,N/A,,Scattered Clouds,70,2013-04-22 11:35:00
7:55 AM,44.6,35.6,71,30.57,10.0,ENE,8.1,-,N/A,,Scattered Clouds,70,2013-04-22 11:55:00
8:15 AM,44.6,35.6,71,30.57,10.0,ENE,9.2,-,N/A,,Scattered Clouds,60,2013-04-22 12:15:00
8:35 AM,44.6,35.6,71,30.56,10.0,NE,9.2,-,N/A,,Mostly Cloudy,50,2013-04-22 12:35:00
8:55 AM,46.4,35.6,66,30.56,10.0,ENE,8.1,-,N/A,,Scattered Clouds,60,2013-04-22 12:55:00
9:15 AM,46.4,35.6,66,30.56,10.0,East,11.5,18.4,N/A,,Scattered Clouds,80,2013-04-22 13:15:00
9:35 AM,46.4,35.6,66,30.56,10.0,ENE,10.4,17.3,N/A,,Scattered Clouds,70,2013-04-22 13:35:00
9:56 AM,46.4,35.6,66,30.56,10.0,ENE,10.4,17.3,N/A,,Mostly Cloudy,70,2013-04-22 13:56:00
10:16 AM,48.2,35.6,62,30.56,10.0,ENE,10.4,-,N/A,,Mostly Cloudy,60,2013-04-22 14:16:00
10:36 AM,50.0,33.8,54,30.55,10.0,East,15.0,-,N/A,,Mostly Cloudy,80,2013-04-22 14:36:00
10:56 AM,50.0,33.8,54,30.56,10.0,ENE,11.5,17.3,N/A,,Mostly Cloudy,70,2013-04-22 14:56:00
11:16 AM,50.0,33.8,54,30.56,10.0,ENE,12.7,18.4,N/A,,Mostly Cloudy,70,2013-04-22 15:16:00
11:36 AM,50.0,33.8,54,30.55,10.0,ENE,10.4,-,N/A,,Mostly Cloudy,60,2013-04-22 15:36:00
11:56 AM,50.0,33.8,54,30.54,10.0,East,12.7,19.6,N/A,,Mostly Cloudy,90,2013-04-22 15:56:00
12:16 PM,51.8,33.8,50,30.54,10.0,ENE,9.2,-,N/A,,Mostly Cloudy,60,2013-04-22 16:16:00
12:36 PM,51.8,35.6,54,30.53,10.0,ENE,10.4,18.4,N/A,,Scattered Clouds,60,2013-04-22 16:36:00
12:56 PM,51.8,33.8,50,30.52,10.0,East,12.7,-,N/A,,Mostly Cloudy,80,2013-04-22 16:56:00
1:16 PM,51.8,35.6,54,30.51,10.0,NE,10.4,-,N/A,,Scattered Clouds,40,2013-04-22 17:16:00
1:36 PM,53.6,35.6,51,30.51,10.0,East,10.4,17.3,N/A,,Scattered Clouds,80,2013-04-22 17:36:00
1:56 PM,53.6,35.6,51,30.50,10.0,East,6.9,-,N/A,,Mostly Cloudy,80,2013-04-22 17:56:00
2:16 PM,53.6,35.6,51,30.49,10.0,East,9.2,-,N/A,,Scattered Clouds,90,2013-04-22 18:16:00
2:36 PM,53.6,35.6,51,30.49,10.0,ENE,6.9,-,N/A,,Mostly Cloudy,70,2013-04-22 18:36:00
2:56 PM,53.6,35.6,51,30.48,10.0,East,9.2,-,N/A,,Mostly Cloudy,80,2013-04-22 18:56:00
3:16 PM,53.6,35.6,51,30.47,10.0,ENE,11.5,16.1,N/A,,Mostly Cloudy,70,2013-04-22 19:16:00
3:36 PM,53.6,35.6,51,30.46,10.0,NE,10.4,-,N/A,,Mostly Cloudy,50,2013-04-22 19:36:00
3:56 PM,55.4,35.6,47,30.46,10.0,ENE,10.4,17.3,N/A,,Scattered Clouds,70,2013-04-22 19:56:00
4:16 PM,53.6,35.6,51,30.45,10.0,ENE,8.1,18.4,N/A,,Scattered Clouds,70,2013-04-22 20:16:00
4:36 PM,53.6,33.8,47,30.44,10.0,ENE,8.1,-,N/A,,Mostly Cloudy,70,2013-04-22 20:36:00
4:56 PM,53.6,35.6,51,30.44,10.0,ENE,9.2,-,N/A,,Mostly Cloudy,60,2013-04-22 20:56:00
5:16 PM,53.6,33.8,47,30.43,10.0,ENE,11.5,18.4,N/A,,Mostly Cloudy,70,2013-04-22 21:16:00
5:56 PM,51.8,35.6,54,30.44,10.0,ENE,9.2,-,N/A,,Overcast,70,2013-04-22 21:56:00
6:16 PM,51.8,33.8,50,30.43,10.0,East,10.4,16.1,N/A,,Mostly Cloudy,80,2013-04-22 22:16:00
6:37 PM,51.8,33.8,50,30.43,10.0,East,13.8,17.3,N/A,,Mostly Cloudy,80,2013-04-22 22:37:00
6:57 PM,51.8,33.8,50,30.43,10.0,ENE,10.4,-,N/A,,Mostly Cloudy,70,2013-04-22 22:57:00
7:17 PM,51.8,33.8,50,30.43,10.0,East,11.5,-,N/A,,Scattered Clouds,80,2013-04-22 23:17:00
7:37 PM,50.0,33.8,54,30.43,10.0,East,10.4,18.4,N/A,,Mostly Cloudy,80,2013-04-22 23:37:00
7:57 PM,50.0,33.8,54,30.43,10.0,East,9.2,-,N/A,,Mostly Cloudy,80,2013-04-22 23:57:00
8:17 PM,50.0,33.8,54,30.44,10.0,ENE,9.2,16.1,N/A,,Overcast,70,2013-04-23 00:17:00
8:37 PM,50.0,33.8,54,30.43,10.0,ENE,8.1,-,N/A,,Mostly Cloudy,70,2013-04-23 00:37:00
8:57 PM,50.0,35.6,58,30.44,10.0,ENE,8.1,-,N/A,,Mostly Cloudy,60,2013-04-23 00:57:00
9:17 PM,50.0,35.6,58,30.44,10.0,ENE,4.6,-,N/A,,Mostly Cloudy,70,2013-04-23 01:17:00
9:37 PM,48.2,35.6,62,30.44,10.0,ENE,8.1,-,N/A,,Overcast,70,2013-04-23 01:37:00
9:57 PM,48.2,35.6,62,30.44,10.0,ENE,8.1,-,N/A,,Overcast,60,2013-04-23 01:57:00
10:17 PM,48.2,35.6,62,30.44,10.0,NE,5.8,-,N/A,,Overcast,40,2013-04-23 02:17:00
10:37 PM,46.4,37.4,71,30.43,10.0,ENE,8.1,-,N/A,,Overcast,70,2013-04-23 02:37:00
10:57 PM,46.4,37.4,71,30.43,10.0,NE,8.1,-,N/A,,Mostly Cloudy,50,2013-04-23 02:57:00
11:17 PM,46.4,37.4,71,30.43,10.0,NE,8.1,-,N/A,,Mostly Cloudy,40,2013-04-23 03:17:00
11:37 PM,46.4,37.4,71,30.42,10.0,NE,8.1,-,N/A,,Mostly Cloudy,40,2013-04-23 03:37:00
11:57 PM,46.4,37.4,71,30.42,10.0,NE,5.8,-,N/A,,Mostly Cloudy,50,2013-04-23 03:57:00